Temp
84 84 84 84 84 83 84 83 83 83 82 81 81 81 81 80 80 78 78 77 75 75 75 74 74 74 79 79 79 80 79 79 78 75 78 75 74 76 77 78 80 80 79
85 83 84 84 84 84 83 85 84 82 81 81 81 81 81 80 79 77 77 77 75 73 73 73 73 76 73 74 78 75 77 77 79 71 73 74 75 74 74 74 80 83 82
85 86 86 85 84 83 84 84 85 82 82 82 81 80 80 80 78 78 77 76 75 75 74 73 74 73 73 76 75 76 77 76 76 76 73 76 76 76 73 74 75 76 80
85 84 83 84 84 85 85 83 83 82 82 81 81 80 81 80 79 79 77 75 75 75 75 75 74 73 73 73 74 73 74 75 74 75 75 74 75 72 76 75 74 77 77
83 82 82 83 84 83 83 83 83 82 82 82 81 81 81 81 82 78 77 75 73 73 73 74 74 73 71 72 76 73 72 74 75 74 74 73 73 72 72 75 75 75 72
81 81 82 83 81 82 82 82 82 82 82 81 80 80 79 82 74 71 75 75 73 72 71 72 73 69 68 67 67 68 72 71 71 74 74 73 70 71 72 73 74 72 70
83 82 81 80 80 80 82 81 81 80 81 80 80 80 79 79 69 68 70 75 70 73 72 72 73 76 71 72 67 66 65 66 69 72 70 71 68 70 70 68 68 71 73
80 81 82 82 80 80 80 80 80 82 78 80 80 79 78 77 66 66 68 74 70 73 73 72 72 72 71 72 71 71 72 72 71 76 74 72 73 71 71 72 70 69 71
77 79 80 81 80 81 81 80 81 81 78 79 79 75 73 72 64 64 66 69 70 70 69 70 71 70 65 65 70 69 70 72 64 64 67 66 65 66 70 74 73 73 71
77 76 80 81 81 80 81 81 80 78 77 76 72 71 66 67 62 61 61 64 64 64 66 66 65 67 61 61 70 69 68 71 73 71 70 66 66 67 63 71 74 72 73
79 80 79 79 80 81 82 82 77 75 76 71 69 68 68 67 64 60 59 59 60 60 61 63 65 61 58 58 64 70 70 72 70 73 73 74 73 73 73 71 72 73 73
79 78 78 78 77 77 76 74 71 69 68 68 67 67 67 68 62 59 59 59 59 57 58 63 64 57 56 57 61 61 60 66 74 73 73 72 73 73 75 74 72 72 75
78 78 77 77 77 73 72 70 68 69 68 67 67 67 66 65 63 58 58 57 58 58 58 62 60 55 55 57 59 58 59 72 72 71 71 72 74 76 73 71 71 70 70
76 77 77 77 75 75 69 69 68 69 69 71 71 69 68 65 62 60 60 59 59 59 59 59 59 59 60 64 63 63 71 72 72 71 72 74 74 73 71 73 73 74 73
76 75 77 79 77 72 73 71 68 72 74 74 72 71 66 62 62 58 60 62 60 59 59 60 62 62 63 66 68 69 70 70 70 71 71 71 71 71 71 72 71 72 70
75 77 74 71 71 71 69 68 54 55 55 53 54 62 67 59 54 52 49 51 52 53 62 62 62 63 64 65 64 65 66 66 68 70 69 70 70 70 71 72 71 71 70
73 75 77 70 72 69 68 68 66 60 54 51 51 52 53 56 51 49 48 49 50 54 64 64 65 65 65 62 63 66 69 70 69 70 70 70 70 71 69 70 71 71 71
73 62 71 74 74 72 68 66 66 65 63 62 53 53 50 48 48 48 48 51 52 55 60 61 63 66 64 62 66 70 71 70 69 70 70 70 70 70 70 70 71 71 72
73 75 72 73 76 71 70 67 66 64 63 63 58 54 50 46 48 47 49 59 56 57 62 67 66 62 63 65 70 68 70 71 69 66 71 71 69 71 69 72 71 61 64
72 66 64 77 77 73 69 65 64 64 62 62 59 59 52 52 54 53 53 58 58 60 62 60 59 60 62 65 70 68 64 65 65 68 72 72 71 69 68 69 66 69 70
67 68 66 74 75 74 71 67 64 63 63 62 61 60 52 57 57 56 56 61 64 61 59 60 60 65 68 69 69 67 64 69 72 73 73 70 67 68 68 63 65 63 69
68 65 68 73 73 69 69 69 64 63 64 63 61 60 48 59 59 57 57 62 62 60 61 64 68 68 67 67 69 64 71 71 71 70 71 69 63 64 70 73 72 72 72
63 64 65 66 68 64 66 69 66 64 68 67 65 60 54 57 60 57 56 60 64 60 60 62 62 64 66 69 70 68 71 73 74 73 70 68 72 73 73 72 72 72 72
62 63 66 68 69 69 68 65 64 59 65 66 62 59 56 57 59 59 58 59 62 64 63 62 64 69 65 63 64 64 65 67 75 74 66 71 65 69 72 72 73 72 72
59 60 62 64 62 66 67 64 64 67 65 63 61 61 58 58 59 60 62 64 65 67 70 68 68 67 64 66 70 71 66 49 64 59 72 71 71 72 73 73 73 72 71
59 59 60 60 62 63 68 64 64 64 63 63 63 63 58 59 59 62 64 64 66 71 73 73 74 71 71 73 74 63 43 40 51 42 70 71 71 71 71 69 71 73 71
MSLP
1008.82 1009.38 1010.06 1010.52 1011.20 1011.80 1012.11 1012.41 1012.82 1013.35 1013.82 1014.20 1014.61 1015.10 1015.44 1015.77 1016.27 1016.71 1017.08 1017.49 1017.84 1018.19 1018.42 1018.58 1018.75 1018.94 1018.67 1018.85 1019.02 1018.95 1018.90 1018.86 1018.79 1020.16 1020.54 1021.24 1021.51 1021.57 1021.89 1021.98 1021.94 1021.83 1022.21
1007.98 1008.62 1009.08 1009.94 1010.43 1010.81 1011.23 1011.57 1012.10 1012.52 1013.21 1013.77 1014.26 1014.72 1015.11 1015.56 1016.02 1016.41 1016.79 1017.16 1017.43 1017.68 1017.97 1018.30 1018.41 1018.56 1018.80 1018.95 1019.07 1019.32 1019.14 1019.35 1019.02 1019.79 1020.57 1021.08 1021.19 1021.54 1021.88 1022.08 1021.87 1021.72 1021.64
1007.95 1008.16 1008.53 1008.98 1009.48 1009.75 1010.14 1010.61 1011.10 1011.81 1012.63 1013.23 1013.64 1013.99 1014.48 1014.99 1015.46 1015.93 1016.34 1016.82 1017.22 1017.47 1017.78 1017.89 1017.91 1018.21 1018.49 1018.59 1018.99 1019.18 1019.36 1019.52 1019.60 1019.61 1020.28 1020.89 1021.22 1021.51 1021.90 1022.15 1022.17 1022.15 1021.92
1008.01 1008.34 1008.39 1008.38 1008.42 1008.58 1009.11 1009.80 1010.49 1011.11 1011.66 1012.30 1012.86 1013.35 1013.74 1014.05 1014.50 1014.98 1015.64 1016.27 1016.88 1017.19 1017.45 1017.70 1017.84 1017.96 1018.09 1018.42 1018.65 1019.03 1019.31 1019.36 1019.66 1019.76 1020.13 1020.70 1020.97 1021.75 1021.65 1021.55 1021.80 1022.01 1021.97
1007.04 1007.52 1007.75 1007.94 1008.14 1008.30 1008.65 1008.85 1009.42 1010.33 1010.77 1011.21 1011.79 1012.33 1012.74 1013.26 1013.75 1014.23 1014.67 1015.37 1015.95 1016.32 1016.70 1017.11 1017.46 1017.68 1017.76 1018.19 1018.33 1018.68 1019.07 1019.20 1019.24 1019.52 1020.05 1020.57 1020.76 1021.22 1021.28 1021.69 1021.75 1021.94 1022.38
1006.27 1006.77 1007.33 1007.54 1007.82 1007.90 1008.03 1008.54 1008.85 1008.96 1009.79 1010.32 1010.45 1010.95 1011.92 1012.35 1012.82 1013.67 1014.09 1014.42 1014.94 1015.45 1015.89 1016.47 1017.02 1017.51 1017.54 1017.81 1018.33 1018.48 1018.56 1018.59 1018.71 1019.21 1019.55 1019.91 1020.73 1021.09 1021.45 1021.47 1021.64 1021.82 1021.81
1006.28 1006.23 1006.43 1006.69 1006.93 1006.89 1007.24 1007.80 1008.18 1008.15 1008.03 1008.50 1009.37 1010.03 1010.37 1010.91 1011.47 1012.50 1013.63 1013.81 1014.47 1014.87 1015.20 1015.68 1016.04 1016.53 1017.17 1017.71 1018.24 1018.71 1018.88 1018.81 1018.73 1018.74 1019.13 1019.66 1020.46 1020.79 1021.04 1021.44 1021.67 1021.73 1021.63
1005.75 1006.38 1006.06 1006.22 1006.33 1006.62 1006.85 1006.86 1007.11 1007.28 1007.64 1008.50 1008.35 1009.18 1009.77 1009.90 1010.82 1011.79 1012.58 1013.26 1013.93 1014.18 1014.58 1015.14 1015.51 1015.56 1016.45 1016.92 1017.69 1018.25 1018.52 1018.76 1018.66 1018.62 1018.87 1019.51 1019.97 1020.68 1020.96 1021.11 1021.63 1021.81 1021.99
1006.70 1006.59 1005.98 1005.81 1005.25 1005.46 1005.70 1005.99 1006.36 1006.75 1007.23 1007.56 1008.36 1009.07 1009.97 1010.67 1011.78 1011.75 1011.78 1012.56 1013.13 1014.09 1014.64 1014.93 1015.28 1015.42 1015.75 1016.58 1016.78 1017.69 1018.17 1018.65 1019.35 1019.33 1019.41 1019.82 1020.31 1020.90 1020.89 1020.89 1021.08 1021.02 1021.10
1006.97 1006.65 1005.91 1005.22 1005.03 1004.82 1004.89 1005.15 1005.73 1006.57 1007.02 1007.14 1007.72 1008.64 1009.82 1010.02 1010.36 1011.76 1014.81 1012.02 1013.08 1012.99 1014.58 1014.63 1015.15 1015.57 1015.45 1016.15 1016.42 1016.95 1017.35 1017.97 1018.50 1019.05 1019.91 1020.36 1020.52 1020.88 1021.37 1020.85 1020.85 1020.59 1020.70
1006.50 1005.94 1005.54 1005.32 1004.92 1004.69 1004.70 1004.87 1005.58 1006.12 1006.53 1006.76 1007.03 1007.69 1008.01 1008.55 1009.86 1009.76 1009.46 1013.76 1013.48 1016.14 1014.05 1014.42 1015.50 1015.79 1015.65 1015.66 1016.32 1016.64 1017.16 1017.50 1018.38 1018.67 1019.30 1019.74 1019.96 1020.11 1020.64 1021.03 1020.84 1020.75 1020.55
1005.63 1005.59 1005.60 1005.38 1005.14 1004.80 1004.71 1004.83 1005.29 1005.52 1005.92 1006.42 1006.59 1006.88 1007.89 1008.34 1008.45 1007.21 1009.34 1010.78 1012.26 1012.16 1015.26 1015.16 1015.38 1015.55 1015.50 1015.90 1016.46 1016.67 1017.02 1017.53 1017.84 1018.16 1018.51 1018.86 1019.35 1019.16 1019.53 1020.22 1020.65 1020.75 1020.60
1005.83 1005.64 1005.45 1005.25 1005.06 1005.02 1005.05 1005.26 1005.41 1005.43 1005.94 1006.15 1006.27 1006.65 1006.97 1007.65 1007.86 1007.37 1008.23 1009.81 1010.99 1011.76 1013.37 1014.69 1015.35 1015.56 1015.33 1016.11 1016.48 1016.99 1016.97 1017.11 1017.31 1017.57 1017.98 1018.33 1018.62 1018.85 1019.25 1019.85 1020.22 1020.36 1020.63
1005.64 1005.30 1005.21 1005.09 1005.04 1005.23 1005.23 1005.39 1005.38 1005.46 1005.74 1005.93 1005.98 1005.92 1006.32 1006.91 1007.88 1008.86 1010.27 1010.30 1010.26 1009.95 1011.65 1014.17 1014.80 1015.08 1015.66 1015.47 1016.09 1016.62 1016.77 1016.78 1016.85 1017.16 1017.56 1018.09 1018.34 1018.81 1019.18 1019.22 1019.19 1019.40 1019.42
1005.14 1004.96 1004.85 1004.82 1004.94 1005.10 1005.02 1005.07 1005.40 1005.09 1004.91 1005.11 1005.36 1005.61 1006.02 1006.36 1006.78 1007.88 1008.80 1008.73 1009.22 1010.25 1011.19 1012.79 1014.08 1014.64 1015.29 1015.24 1015.11 1015.58 1016.12 1016.31 1016.66 1017.06 1017.47 1017.78 1018.06 1018.23 1018.56 1018.79 1018.93 1018.79 1018.90
1004.70 1004.36 1004.55 1004.63 1004.63 1004.76 1004.89 1005.03 1005.20 1005.07 1004.91 1004.87 1005.20 1005.47 1005.60 1005.69 1006.38 1007.10 1008.16 1008.58 1008.60 1009.47 1010.86 1011.26 1012.94 1013.78 1014.01 1014.00 1014.38 1015.06 1015.41 1015.71 1016.17 1016.79 1017.31 1017.29 1017.36 1017.73 1018.03 1018.15 1018.39 1018.11 1017.95
1004.55 1004.09 1003.80 1003.96 1004.03 1004.08 1004.11 1004.39 1004.77 1005.06 1005.01 1004.90 1005.03 1005.22 1005.30 1005.64 1006.04 1006.69 1007.92 1008.79 1009.31 1009.92 1010.02 1010.50 1011.39 1012.47 1013.08 1013.47 1013.62 1013.85 1014.17 1014.64 1015.45 1015.99 1016.45 1016.68 1017.01 1017.19 1017.48 1017.48 1017.36 1017.49 1017.10
1004.46 1004.00 1003.74 1003.02 1003.13 1003.60 1003.48 1003.69 1003.91 1004.15 1004.38 1004.52 1004.72 1004.71 1004.86 1005.11 1005.81 1006.45 1007.35 1008.13 1008.88 1008.84 1008.90 1009.56 1010.30 1011.18 1012.08 1012.37 1012.48 1012.63 1013.30 1013.97 1014.68 1015.11 1015.45 1016.06 1016.50 1016.57 1016.57 1016.82 1016.20 1016.27 1016.33
1004.03 1003.35 1002.81 1002.58 1002.54 1002.95 1003.19 1003.15 1003.34 1003.46 1003.53 1003.78 1004.16 1004.44 1004.72 1005.26 1005.55 1006.16 1006.65 1006.94 1007.61 1007.78 1008.00 1008.64 1009.53 1010.16 1010.66 1011.21 1011.68 1012.18 1012.55 1012.83 1013.71 1014.42 1014.58 1014.95 1015.48 1015.65 1015.77 1015.63 1015.48 1015.59 1015.68
1003.56 1002.99 1002.37 1002.11 1001.98 1002.26 1002.45 1002.49 1002.66 1002.82 1003.04 1003.19 1003.60 1003.87 1004.61 1005.35 1005.84 1006.45 1006.48 1006.45 1006.55 1006.71 1007.27 1008.16 1008.70 1009.25 1009.75 1010.29 1010.83 1011.26 1012.04 1012.52 1013.00 1013.40 1013.48 1014.06 1014.42 1014.94 1014.89 1014.82 1015.00 1015.03 1015.14
1003.37 1002.71 1001.96 1001.77 1001.37 1001.43 1001.68 1001.79 1002.02 1002.13 1002.25 1002.54 1002.72 1003.07 1003.54 1003.78 1004.31 1004.87 1005.45 1005.57 1005.58 1006.05 1006.72 1007.46 1008.14 1008.53 1009.04 1009.44 1009.89 1010.38 1011.25 1011.51 1011.73 1012.33 1012.84 1013.22 1014.05 1014.08 1014.24 1014.47 1014.47 1014.59 1014.41
1003.03 1002.64 1002.07 1001.31 1001.08 1001.13 1001.16 1001.14 1001.43 1001.54 1001.54 1001.71 1002.16 1002.47 1002.93 1003.34 1003.43 1003.91 1004.41 1004.44 1004.73 1005.33 1006.02 1006.49 1006.91 1007.74 1008.31 1008.83 1009.20 1009.90 1009.95 1010.48 1011.06 1011.71 1011.98 1012.63 1013.22 1013.50 1013.14 1012.90 1013.15 1013.31 1013.31
1002.59 1001.98 1001.57 1001.22 1000.86 1000.76 1000.66 1000.42 1000.62 1000.63 1000.48 1000.80 1001.12 1001.68 1002.34 1002.53 1002.61 1003.01 1003.39 1003.78 1004.17 1004.87 1005.29 1005.97 1006.47 1006.92 1007.70 1008.11 1008.29 1008.70 1009.04 1009.51 1010.16 1010.82 1011.26 1011.48 1011.80 1011.98 1011.92 1012.03 1012.14 1012.33 1012.59
1001.61 1001.15 1000.71 1000.34 1000.05 999.88 999.73 999.91 999.92 999.91 999.83 999.74 1000.08 1000.54 1001.08 1001.41 1001.78 1002.05 1002.43 1003.07 1003.78 1003.88 1004.36 1005.05 1005.64 1005.78 1006.69 1007.13 1007.35 1007.92 1008.49 1008.91 1009.26 1009.67 1010.49 1010.53 1011.43 1011.30 1011.23 1011.19 1011.39 1011.73 1012.04
1000.76 1000.48 1000.12 999.76 999.66 999.35 999.01 999.12 998.99 998.79 998.91 999.18 999.46 999.90 1000.54 1000.79 1000.93 1001.32 1001.71 1002.23 1002.69 1002.98 1003.21 1004.04 1004.69 1005.21 1005.85 1006.09 1006.42 1007.05 1007.45 1008.28 1008.98 1009.14 1009.47 1009.90 1010.34 1010.23 1010.22 1010.46 1010.80 1011.24 1011.59
999.53 999.35 999.27 999.14 998.97 998.75 998.25 998.25 998.17 998.05 998.24 998.57 998.80 999.10 999.73 999.92 1000.12 1000.12 1000.68 1001.63 1002.04 1002.01 1002.28 1003.04 1003.72 1004.30 1004.75 1005.31 1005.96 1006.43 1007.28 1007.92 1008.60 1008.89 1008.74 1009.17 1009.61 1009.55 1009.61 1009.93 1010.24 1010.58 1010.95
Wind_Speed
16 15 15 15 15 14 13 13 12 11 11 12 13 13 13 12 12 10 9 8 9 7 6 7 7 6 5 4 4 3 4 5 7 4 5 7 5 5 5 4 4 4 7
15 14 16 14 14 15 15 15 13 14 13 13 13 13 13 13 12 12 12 10 11 11 10 8 8 6 6 4 4 4 4 4 4 8 7 6 6 6 5 4 2 2 4
13 15 15 15 16 16 16 16 15 14 14 13 13 14 14 14 14 13 13 12 12 11 10 10 10 9 8 6 5 5 5 4 4 5 7 5 5 5 5 3 3 3 4
11 11 13 16 17 18 16 15 16 14 15 15 15 14 15 16 16 15 14 13 11 11 10 9 9 10 10 9 8 6 5 5 4 6 7 7 5 4 3 4 5 2 3
12 12 15 13 14 13 13 15 16 15 15 15 15 16 16 15 14 16 16 15 14 13 12 11 11 11 11 9 7 8 7 6 6 7 6 5 6 6 5 2 2 2 5
12 13 12 12 13 14 14 15 15 16 16 15 17 17 17 13 16 18 18 15 16 15 14 13 11 13 13 14 9 8 8 9 8 7 7 7 6 5 4 3 3 4 5
7 10 13 13 15 16 15 15 16 17 16 19 18 17 19 18 19 25 23 14 13 15 15 14 14 12 13 12 10 10 8 6 4 9 9 8 7 6 6 6 4 4 2
8 13 12 13 14 14 14 16 16 15 14 14 15 16 15 15 21 26 27 16 13 17 16 15 15 15 15 14 12 11 9 8 9 7 7 8 6 9 7 5 5 4 3
7 10 12 14 16 14 14 15 13 13 12 12 11 10 10 10 8 18 22 13 15 14 11 12 13 15 17 15 14 13 10 8 6 6 8 9 11 8 5 7 6 5 5
3 7 10 11 12 14 13 13 11 10 11 8 8 7 10 8 17 10 10 14 9 10 10 11 14 12 19 17 13 14 13 13 12 11 9 8 9 9 8 5 4 4 3
2 5 7 8 10 13 13 11 10 11 11 10 12 12 15 13 12 24 23 9 6 11 5 8 8 11 17 17 11 12 11 13 11 10 9 8 7 7 7 7 6 5 4
7 7 7 6 4 6 10 3 5 7 8 8 7 6 5 11 17 25 25 21 20 12 8 4 6 16 17 15 11 11 13 11 9 9 8 9 9 8 7 7 7 7 6
5 5 5 6 6 4 4 4 4 7 6 6 8 8 9 9 9 24 30 28 27 13 12 10 12 16 15 12 9 11 12 8 9 9 9 8 7 6 4 5 7 7 8
8 5 4 5 5 3 1 2 4 6 7 9 9 9 8 7 6 10 11 15 20 15 18 12 10 10 11 11 12 11 9 9 9 9 8 6 5 6 6 6 6 7 7
10 7 6 4 4 5 5 5 5 8 10 11 10 10 9 8 9 11 14 13 11 13 13 9 8 9 11 10 10 10 10 9 9 8 7 7 6 6 6 5 6 6 8
10 9 6 4 5 5 5 5 2 4 10 10 9 10 9 10 11 17 12 13 18 21 10 11 9 10 11 10 10 10 8 9 9 9 8 7 7 7 6 7 7 7 8
10 12 8 6 6 5 6 5 5 3 5 9 11 12 11 11 14 15 16 18 18 17 10 11 12 11 10 8 8 9 11 11 10 9 8 8 7 7 7 8 7 8 8
12 12 11 8 6 7 6 6 6 5 6 5 6 9 13 13 17 19 19 16 11 12 10 9 11 11 10 9 9 11 11 10 10 10 9 9 8 8 8 8 8 9 9
11 10 10 7 5 6 7 6 5 5 6 5 3 2 4 7 12 14 24 12 12 11 11 12 11 10 10 9 11 9 11 11 11 9 9 9 8 9 8 9 8 9 7
11 16 11 7 6 7 7 6 6 6 5 5 5 6 7 5 6 8 9 8 10 10 11 10 9 10 10 11 12 9 8 9 8 9 10 9 8 8 9 9 7 9 7
9 11 11 7 7 7 7 8 6 6 6 6 6 7 11 10 10 10 11 13 12 11 11 10 10 11 11 11 11 10 9 9 11 9 9 8 6 8 7 5 6 7 9
9 8 10 10 8 7 9 8 6 7 8 8 6 6 15 9 8 9 10 9 8 9 9 11 12 11 10 11 11 9 12 11 10 9 9 8 7 8 10 11 10 10 9
9 10 9 10 9 8 8 10 8 8 10 10 10 8 10 11 9 10 11 10 12 10 9 9 10 10 10 11 10 9 12 12 11 10 7 6 7 9 8 9 9 9 8
10 10 11 11 10 10 9 9 9 10 11 10 9 9 10 11 10 12 11 10 10 10 9 9 10 14 11 11 10 9 9 7 11 11 8 6 6 9 9 8 8 9 8
9 9 10 10 7 10 10 9 9 11 10 9 8 8 7 9 10 9 9 11 11 11 13 12 10 13 14 16 16 18 18 14 13 10 8 9 14 14 10 8 8 8 9
10 11 10 9 9 8 11 8 9 8 7 9 9 8 9 10 9 8 8 8 9 11 12 11 13 17 19 17 21 19 12 11 11 11 8 8 10 10 9 9 12 8 9
Wind_Direction
199 200 203 201 204 207 208 208 208 205 200 203 201 204 203 199 195 195 199 188 195 188 185 188 194 192 203 205 200 196 201 216 226 147 146 146 146 144 119 124 156 172 149
198 195 199 205 205 204 210 210 207 206 201 205 204 205 204 202 196 197 196 195 197 195 191 189 196 193 194 196 214 215 210 198 226 180 147 161 161 145 126 119 102 138 180
207 204 206 206 204 209 212 213 206 206 208 208 204 204 204 202 199 201 200 198 202 202 196 196 192 188 191 182 202 191 188 199 202 188 157 170 142 158 147 143 107 116 173
224 226 217 213 210 210 209 208 208 206 205 207 207 205 206 204 201 198 197 197 199 201 200 202 197 193 193 189 189 188 178 185 182 185 172 162 165 138 204 189 172 166 167
211 212 225 227 228 219 218 208 203 210 209 200 200 209 210 207 206 200 195 193 193 193 194 199 199 197 188 191 189 183 170 188 178 180 171 178 174 172 198 153 227 181 162
201 220 234 234 226 227 221 216 211 201 209 209 204 199 206 212 201 193 192 191 192 192 191 190 187 187 184 184 199 185 185 180 181 191 186 197 168 175 156 187 208 199 177
257 244 232 230 226 221 218 216 220 217 207 203 206 205 206 208 184 184 194 192 188 196 194 188 185 184 177 176 174 170 175 183 212 180 182 189 166 171 157 173 166 183 161
329 292 273 256 239 232 224 221 219 220 217 217 217 215 217 208 182 186 189 199 194 198 192 191 193 172 178 172 168 171 168 166 167 189 178 158 156 152 163 156 153 142 148
307 291 284 276 263 250 235 230 227 229 220 216 216 211 217 258 234 206 189 195 197 190 185 186 191 179 165 168 165 167 164 157 115 96 113 118 123 140 158 163 167 191 165
322 300 301 293 267 258 251 240 229 223 222 194 173 162 159 147 136 106 340 351 246 184 178 179 196 183 162 165 169 166 169 166 158 142 142 138 155 170 187 227 176 222 215
24 2 4 337 295 270 257 245 214 213 204 180 186 176 169 190 168 157 134 158 163 308 188 168 193 180 165 165 176 171 177 160 164 168 174 178 181 180 197 212 219 245 236
3 6 349 352 330 288 270 253 165 153 170 191 198 184 203 205 176 152 168 175 153 132 265 229 200 180 169 171 174 144 132 165 176 186 189 194 199 198 200 207 217 229 243
326 333 332 334 338 299 254 176 170 168 175 186 195 204 207 183 188 164 161 153 161 152 179 218 191 181 167 166 182 152 155 189 187 189 194 197 200 212 189 199 209 210 231
287 292 298 305 317 286 189 168 177 171 180 197 207 219 219 208 183 165 178 174 173 159 165 202 191 171 190 183 173 169 192 194 195 200 201 205 184 192 209 214 218 212 231
288 280 273 269 261 265 252 217 208 219 219 216 216 218 209 214 200 179 191 180 159 165 157 149 169 169 200 195 187 182 189 188 198 204 209 203 207 210 217 210 231 233 239
289 277 262 262 261 254 249 245 190 257 237 244 249 220 211 233 179 178 184 158 155 147 168 157 174 192 195 182 179 180 183 186 200 204 208 212 211 214 225 217 230 235 244
274 274 265 232 248 247 258 238 248 195 236 233 219 218 215 185 170 161 150 146 150 157 180 171 179 190 191 181 176 182 193 197 193 201 208 214 218 227 219 235 230 237 237
287 260 263 257 227 251 226 239 245 233 230 208 232 229 213 174 174 169 159 147 166 185 189 174 183 184 180 180 187 204 203 194 197 201 202 215 221 230 231 236 239 239 243
290 276 261 249 244 250 256 234 230 229 229 221 157 190 104 152 180 166 165 186 186 184 183 189 192 180 181 182 200 196 203 203 195 192 205 212 214 230 236 245 256 249 243
302 271 263 266 265 257 254 231 229 225 221 219 201 186 140 129 172 176 187 184 184 181 189 186 176 185 187 188 195 184 185 185 194 196 206 218 217 216 231 244 236 239 229
290 302 286 265 260 265 263 255 227 222 216 220 219 196 183 182 183 180 187 199 192 186 185 189 184 193 194 195 197 186 177 195 195 201 213 211 217 230 231 251 254 227 236
287 281 280 273 266 266 260 262 227 220 218 217 215 205 182 201 185 177 188 204 187 184 179 187 196 198 193 197 199 190 206 204 206 199 203 207 204 217 226 232 235 237 236
272 269 268 271 266 263 263 250 239 225 228 226 219 185 186 205 194 182 182 187 190 187 182 184 181 185 190 195 202 187 194 203 201 198 201 209 235 237 234 240 235 235 230
263 256 260 267 267 265 257 239 237 222 228 239 210 194 192 196 196 185 177 180 195 192 178 179 183 184 187 187 184 183 192 194 196 197 201 215 241 234 234 229 229 227 235
251 257 262 258 250 261 254 244 232 228 228 221 209 199 196 196 197 195 183 189 192 191 188 186 191 191 194 188 191 197 196 183 196 185 194 220 234 229 217 212 212 222 223
246 235 242 244 252 255 257 237 235 224 213 216 217 209 188 184 191 193 168 177 183 190 190 191 196 200 196 197 204 201 191 192 200 201 214 221 230 221 204 202 204 214 216